N1GUJ Weather Reports


Display with metric or nautical units.
time (UTC)temp
F
wind
direction
speed
MPH
gust
MPH
rain 1hr
in
rain 24hr
in
rain mn
in
humidity
%
barometer
mb
20260508065424 35 231 0.0 0.0 0.00 0.00 0.00 80 1007.1
20260508064921 35 231 0.0 0.0 0.00 0.00 0.00 80 1007.1
20260508064424 35 230 0.0 0.0 0.00 0.00 0.00 80 1007.1
20260508063927 35 231 0.0 0.0 0.00 0.00 0.00 79 1007.2
20260508063421 35 231 0.0 0.0 0.00 0.00 0.00 79 1007.2
20260508062921 36 231 0.0 0.0 0.00 0.00 0.00 78 1007.1
20260508062422 36 231 0.0 0.0 0.00 0.00 0.00 78 1007.1
20260508061923 36 231 0.0 0.0 0.00 0.00 0.00 77 1007.1
20260508061421 37 231 0.0 0.0 0.00 0.00 0.00 76 1007.1
20260508060927 37 231 0.0 0.0 0.00 0.00 0.00 76 1007.2
20260508060424 37 231 0.0 0.0 0.00 0.00 0.00 76 1007.2
20260508055923 37 231 0.0 0.0 0.00 0.00 0.00 76 1007.1
20260508055421 37 231 0.0 0.0 0.00 0.00 0.00 76 1007.2
20260508054920 37 231 0.0 0.0 0.00 0.00 0.00 76 1007.3
20260508054420 38 231 0.0 0.0 0.00 0.00 0.00 76 1007.3
20260508053924 38 231 0.0 0.0 0.00 0.00 0.00 76 1007.3
20260508053427 38 231 0.0 0.0 0.00 0.00 0.00 76 1007.3
20260508052920 38 231 0.0 0.0 0.00 0.00 0.00 76 1007.4
20260508052422 38 231 0.0 0.0 0.00 0.00 0.00 75 1007.4
20260508051920 38 231 0.0 0.0 0.00 0.00 0.00 75 1007.4
20260508051424 38 231 0.0 0.0 0.00 0.00 0.00 75 1007.5
20260508050928 38 231 0.0 0.0 0.00 0.00 0.00 76 1007.5
20260508050423 38 231 0.0 0.0 0.00 0.00 0.00 75 1007.5
20260508045920 38 231 0.0 0.0 0.00 0.00 0.00 75 1007.6
20260508045425 38 231 0.0 0.0 0.00 0.00 0.00 74 1007.6
20260508044926 38 231 0.0 0.0 0.00 0.00 0.00 74 1007.6
20260508044421 39 231 0.0 0.0 0.00 0.00 0.00 74 1007.7
20260508043920 39 231 0.0 0.0 0.00 0.00 0.00 74 1007.6
20260508043423 39 231 0.0 0.0 0.00 0.00 0.00 74 1007.7
20260508042920 39 231 0.0 0.0 0.00 0.00 0.00 75 1007.7
20260508042420 39 231 0.0 0.0 0.00 0.00 0.00 75 1007.8
20260508041923 39 231 0.0 0.0 0.00 0.00 0.00 75 1007.7
20260508041423 39 231 0.0 0.0 0.00 0.00 0.00 74 1007.7
20260508040923 38 231 0.0 0.0 0.00 0.00 0.00 74 1007.7
20260508040420 38 230 0.0 0.0 0.00 0.00 0.00 75 1007.7
20260508035923 38 231 0.0 0.0 0.00 0.00 0.00 75 1007.6
20260508035427 38 231 0.0 0.0 0.00 0.00 0.00 77 1007.6
20260508034926 39 230 0.0 0.0 0.00 0.00 0.00 77 1007.7
20260508034420 39 231 0.0 0.0 0.00 0.00 0.00 77 1007.7
20260508033921 39 231 0.0 0.0 0.00 0.00 0.00 76 1007.7
20260508033421 39 231 0.0 0.0 0.00 0.00 0.00 75 1007.7
20260508032927 39 231 0.0 0.0 0.00 0.00 0.00 73 1007.6
20260508032420 39 231 0.0 0.0 0.00 0.00 0.00 73 1007.7
20260508031920 38 231 0.0 0.0 0.00 0.00 0.00 74 1007.7
20260508031424 38 231 0.0 0.0 0.00 0.00 0.00 73 1007.7
20260508030923 38 231 0.0 0.0 0.00 0.00 0.00 74 1007.7
20260508030423 38 231 0.0 0.0 0.00 0.00 0.00 72 1007.6
20260508025923 38 230 0.0 0.0 0.00 0.00 0.00 71 1007.7
20260508025424 38 231 0.0 0.0 0.00 0.00 0.00 71 1007.8
20260508024920 38 231 0.0 0.0 0.00 0.00 0.00 70 1007.7
20260508024423 39 231 0.0 0.0 0.00 0.00 0.00 70 1007.7
20260508023920 39 231 0.0 0.0 0.00 0.00 0.00 69 1007.7
20260508023426 39 230 0.0 0.0 0.00 0.00 0.00 69 1007.7
20260508022921 39 230 0.0 0.0 0.00 0.00 0.00 69 1007.8
20260508022426 39 231 0.0 0.0 0.00 0.00 0.00 69 1007.8
20260508021924 39 231 0.0 0.0 0.00 0.00 0.00 69 1007.7
20260508021426 39 231 0.0 0.0 0.00 0.00 0.00 68 1007.7
20260508020926 39 231 0.0 0.0 0.00 0.00 0.00 68 1007.7
20260508020422 39 231 0.0 0.0 0.00 0.00 0.00 68 1007.6
20260508015923 40 230 0.0 0.0 0.00 0.00 0.00 67 1007.6
20260508015419 40 231 0.0 0.0 0.00 0.00 0.00 68 1007.6
20260508014923 40 231 0.0 0.0 0.00 0.00 0.00 66 1007.6
20260508014420 40 231 0.0 0.0 0.00 0.00 0.00 69 1007.5
20260508013919 40 231 0.0 0.0 0.00 0.00 0.00 68 1007.5
20260508013419 40 231 0.0 0.0 0.00 0.00 0.00 65 1007.5
20260508012919 40 231 0.0 0.0 0.00 0.00 0.00 64 1007.5
20260508012423 41 231 0.0 0.0 0.00 0.00 0.00 64 1007.5
20260508011922 41 231 0.0 0.0 0.00 0.00 0.00 62 1007.3
20260508011419 41 231 0.0 0.0 0.00 0.00 0.00 62 1007.3
20260508010922 41 231 0.0 0.0 0.00 0.00 0.00 63 1007.3
20260508010422 41 231 0.0 0.0 0.00 0.00 0.00 64 1007.3
20260508005922 42 231 0.0 0.0 0.00 0.00 0.00 62 1007.3
20260508005419 42 231 0.0 0.0 0.00 0.00 0.00 62 1007.2
20260508004922 42 231 0.0 0.0 0.00 0.00 0.00 62 1007.2
20260508004420 42 231 0.0 0.0 0.00 0.00 0.00 61 1007.1
20260508003922 43 231 0.0 0.0 0.00 0.00 0.00 60 1007.1
20260508003420 43 230 0.0 0.0 0.00 0.00 0.00 58 1007.0
20260508002920 43 231 0.0 0.0 0.00 0.00 0.00 56 1007.0
20260508002428 44 231 0.0 0.0 0.00 0.00 0.00 58 1007.0
20260508001922 44 231 0.0 0.0 0.00 0.00 0.00 58 1006.9
20260508001422 45 231 0.0 0.0 0.00 0.00 0.00 55 1006.9
20260508000920 45 231 0.0 0.0 0.00 0.00 0.00 52 1006.9
20260508000419 46 231 0.0 0.0 0.00 0.00 0.00 50 1007.0
20260507235920 46 231 0.0 0.0 0.00 0.00 0.00 50 1006.9
20260507235419 47 231 0.0 0.0 0.00 0.00 0.00 46 1006.9
20260507234920 47 231 0.0 0.0 0.00 0.00 0.00 46 1006.8
20260507234419 47 231 0.0 0.0 0.00 0.00 0.00 46 1006.7
20260507233925 47 231 0.0 1.0 0.00 0.00 0.00 47 1006.8
20260507233419 47 230 0.0 0.0 0.00 0.00 0.00 47 1006.8
20260507232925 47 230 0.0 0.0 0.00 0.00 0.00 48 1006.9
20260507232419 48 231 0.0 0.0 0.00 0.00 0.00 49 1006.8
20260507231925 48 230 0.0 0.0 0.00 0.00 0.00 47 1006.8
20260507231426 48 231 0.0 2.0 0.00 0.00 0.00 44 1006.8
20260507230929 48 231 2.0 1.0 0.00 0.00 0.00 48 1006.8
20260507230426 49 231 0.0 3.0 0.00 0.00 0.00 45 1006.8
20260507225919 49 230 2.0 2.0 0.00 0.00 0.00 42 1006.8
20260507225419 49 228 0.0 2.0 0.00 0.00 0.00 42 1006.7
20260507224920 49 239 0.0 1.0 0.00 0.00 0.00 41 1006.8
20260507224419 49 237 1.0 1.0 0.00 0.00 0.00 42 1006.8
20260507223922 49 237 0.0 3.0 0.00 0.00 0.00 43 1006.8
20260507223425 49 350 0.0 5.0 0.00 0.00 0.00 40 1006.8
20260507222920 49 272 0.0 3.0 0.00 0.00 0.00 42 1006.8
20260507222422 49 237 0.0 2.0 0.00 0.00 0.00 41 1006.7
20260507221919 49 237 0.0 3.0 0.00 0.00 0.00 42 1006.8
20260507221424 49 235 0.0 2.0 0.00 0.00 0.00 42 1006.8
20260507220924 49 235 2.0 3.0 0.00 0.00 0.00 43 1006.9
20260507220420 49 6 0.0 4.0 0.00 0.00 0.00 42 1006.8
20260507215924 49 338 2.0 3.0 0.00 0.00 0.00 39 1006.8
20260507215418 49 337 2.0 8.0 0.00 0.00 0.00 40 1006.9
20260507214922 49 353 0.0 1.0 0.00 0.00 0.00 42 1006.9
20260507214420 50 353 0.0 4.0 0.00 0.00 0.00 39 1006.7
20260507213924 50 235 1.0 2.0 0.00 0.00 0.00 40 1006.8
20260507213419 50 235 3.0 6.0 0.00 0.00 0.00 40 1006.7
20260507212920 50 316 0.0 3.0 0.00 0.00 0.00 42 1006.7
20260507212425 50 346 0.0 5.0 0.00 0.00 0.00 40 1006.6
20260507211918 51 241 1.0 5.0 0.00 0.00 0.00 43 1006.6
20260507211421 51 330 3.0 10.0 0.00 0.00 0.00 38 1006.6
20260507210918 51 330 3.0 6.0 0.00 0.00 0.00 39 1006.5
20260507210418 50 354 2.0 6.0 0.00 0.00 0.00 39 1006.6
20260507205918 50 296 2.0 7.0 0.00 0.00 0.00 40 1006.4
20260507205421 50 323 1.0 6.0 0.00 0.00 0.00 41 1006.4
20260507204918 50 346 3.0 6.0 0.00 0.00 0.00 40 1006.3
20260507204421 50 335 2.0 8.0 0.00 0.00 0.00 40 1006.3
20260507203919 50 311 3.0 7.0 0.00 0.00 0.00 40 1006.3
20260507203418 50 14 1.0 8.0 0.00 0.00 0.00 42 1006.3
20260507202921 51 330 2.0 5.0 0.00 0.00 0.00 39 1006.3
20260507202424 51 222 3.0 6.0 0.00 0.00 0.00 41 1006.3
20260507201925 51 287 2.0 9.0 0.00 0.00 0.00 42 1006.3
20260507201421 51 277 3.0 8.0 0.00 0.00 0.00 41 1006.2
20260507200924 51 343 3.0 8.0 0.00 0.00 0.00 38 1006.3
20260507200424 51 348 3.0 5.0 0.00 0.00 0.00 41 1006.3
20260507195924 51 300 2.0 6.0 0.00 0.00 0.00 38 1006.3
20260507195421 51 344 1.0 6.0 0.00 0.00 0.00 38 1006.3
20260507194921 52 280 2.0 8.0 0.00 0.00 0.00 39 1006.3
20260507194419 51 352 1.0 5.0 0.00 0.00 0.00 43 1006.4
20260507193921 51 349 1.0 4.0 0.00 0.00 0.00 42 1006.3
20260507193422 51 330 0.0 8.0 0.00 0.00 0.00 39 1006.3
20260507192918 51 209 1.0 7.0 0.00 0.00 0.00 40 1006.4
20260507192418 51 279 1.0 12.0 0.00 0.00 0.00 39 1006.4
20260507191919 51 346 3.0 7.0 0.00 0.00 0.00 39 1006.3
20260507191424 51 343 4.0 7.0 0.00 0.00 0.00 39 1006.4
20260507190922 51 306 5.0 6.0 0.00 0.00 0.00 41 1006.4
20260507190421 51 345 2.0 5.0 0.00 0.00 0.00 43 1006.4
20260507185918 51 348 3.0 5.0 0.00 0.00 0.00 40 1006.4
20260507185424 51 266 2.0 4.0 0.00 0.00 0.00 43 1006.4
20260507184918 51 333 1.0 5.0 0.00 0.00 0.00 41 1006.4
20260507184421 51 306 2.0 5.0 0.00 0.00 0.00 41 1006.4
20260507183918 51 343 1.0 4.0 0.00 0.00 0.00 44 1006.5
20260507183421 52 306 0.0 7.0 0.00 0.00 0.00 37 1006.4
20260507182919 52 244 0.0 4.0 0.00 0.00 0.00 42 1006.5
20260507182418 52 240 1.0 7.0 0.00 0.00 0.00 42 1006.5
20260507181920 52 341 1.0 5.0 0.00 0.00 0.00 42 1006.4
20260507181424 51 284 0.0 6.0 0.00 0.00 0.00 42 1006.5
20260507180922 51 340 1.0 8.0 0.00 0.00 0.00 39 1006.6
20260507180428 51 274 1.0 4.0 0.00 0.00 0.00 46 1006.5
20260507175920 51 289 0.0 4.0 0.00 0.00 0.00 40 1006.5
20260507175424 51 345 0.0 4.0 0.00 0.00 0.00 38 1006.6
20260507174922 51 330 3.0 5.0 0.00 0.00 0.00 41 1006.5
20260507174417 51 328 1.0 7.0 0.00 0.00 0.00 47 1006.5
20260507173924 51 359 5.0 7.0 0.00 0.00 0.00 41 1006.6
20260507173417 51 224 4.0 6.0 0.00 0.00 0.00 40 1006.7
20260507172917 51 209 2.0 6.0 0.00 0.00 0.00 43 1006.6
20260507172417 51 257 2.0 7.0 0.00 0.00 0.00 43 1006.6
20260507171920 51 266 0.0 4.0 0.00 0.00 0.00 42 1006.7
20260507171418 51 241 0.0 4.0 0.00 0.00 0.00 41 1006.7
20260507170917 52 251 4.0 9.0 0.00 0.00 0.00 44 1006.8
20260507170421 52 238 2.0 5.0 0.00 0.00 0.00 41 1006.8
20260507165918 52 70 2.0 5.0 0.00 0.00 0.00 43 1006.9
20260507165417 52 316 1.0 11.0 0.00 0.00 0.00 48 1006.9
20260507164920 52 213 1.0 6.0 0.00 0.00 0.00 42 1007.0
20260507164417 52 345 0.0 5.0 0.00 0.00 0.00 44 1007.0
20260507163917 52 235 3.0 7.0 0.00 0.00 0.00 50 1007.0
20260507163418 52 239 2.0 3.0 0.00 0.00 0.00 45 1007.0
20260507162920 52 295 0.0 2.0 0.00 0.00 0.00 49 1007.1
20260507162418 51 291 1.0 5.0 0.00 0.00 0.00 49 1007.2
20260507161917 51 337 1.0 5.0 0.00 0.00 0.00 47 1007.3
20260507161420 51 339 4.0 4.0 0.00 0.00 0.00 47 1007.4
20260507160921 51 256 2.0 5.0 0.00 0.00 0.00 52 1007.4
20260507160420 51 176 0.0 5.0 0.00 0.00 0.00 52 1007.4
20260507155918 50 225 0.0 4.0 0.00 0.00 0.00 48 1007.5
20260507155417 50 335 0.0 5.0 0.00 0.00 0.00 51 1007.5
20260507154918 50 228 1.0 7.0 0.00 0.00 0.00 47 1007.7
20260507154417 50 249 0.0 7.0 0.00 0.00 0.00 53 1007.6
20260507153917 50 311 1.0 5.0 0.00 0.00 0.00 56 1007.6
20260507153417 50 237 0.0 6.0 0.00 0.00 0.00 46 1007.6
20260507152917 50 220 1.0 6.0 0.00 0.00 0.00 48 1007.7
20260507152417 49 239 0.0 7.0 0.00 0.00 0.00 55 1007.7
20260507151917 49 181 3.0 7.0 0.00 0.00 0.00 52 1007.7
20260507151417 49 214 1.0 5.0 0.00 0.00 0.00 58 1007.6
20260507150920 49 187 1.0 4.0 0.00 0.00 0.00 54 1007.8
20260507150420 48 180 4.0 7.0 0.00 0.00 0.00 51 1007.8
20260507145920 48 218 2.0 9.0 0.00 0.00 0.00 58 1007.7
20260507145420 48 224 1.0 8.0 0.00 0.00 0.00 55 1007.7
20260507144924 48 10 0.0 5.0 0.00 0.00 0.00 55 1007.7
20260507144417 48 195 0.0 5.0 0.00 0.00 0.00 60 1007.7
20260507143920 48 25 1.0 3.0 0.00 0.00 0.00 59 1007.6
20260507143421 48 210 0.0 5.0 0.00 0.00 0.00 58 1007.7
20260507142917 47 261 0.0 3.0 0.00 0.00 0.00 61 1007.7
20260507142423 47 262 0.0 3.0 0.00 0.00 0.00 56 1007.8
20260507141924 47 341 1.0 4.0 0.00 0.00 0.00 60 1007.9
20260507141421 47 154 2.0 4.0 0.00 0.00 0.00 62 1007.9
20260507140919 47 230 1.0 4.0 0.00 0.00 0.00 59 1007.8
20260507140421 46 182 0.0 5.0 0.00 0.00 0.00 65 1007.8
20260507135919 46 192 2.0 5.0 0.00 0.00 0.00 61 1007.8
20260507135420 46 224 3.0 6.0 0.00 0.00 0.00 63 1007.9
20260507134916 46 220 1.0 8.0 0.00 0.00 0.00 62 1007.8
20260507134420 45 335 1.0 5.0 0.00 0.00 0.00 68 1007.8
20260507133925 45 339 0.0 4.0 0.00 0.00 0.00 68 1007.7
20260507133417 45 222 0.0 9.0 0.00 0.00 0.00 70 1007.7
20260507132917 45 255 1.0 4.0 0.00 0.00 0.00 70 1007.7
20260507132418 44 355 0.0 2.0 0.00 0.00 0.00 72 1007.7
20260507131919 44 350 0.0 4.0 0.00 0.00 0.00 72 1007.8
20260507131422 44 212 5.0 6.0 0.00 0.00 0.00 76 1007.6
20260507130916 43 219 1.0 5.0 0.00 0.00 0.00 77 1007.6
20260507130417 43 249 1.0 3.0 0.00 0.00 0.00 77 1007.6
20260507125919 42 253 0.0 3.0 0.00 0.00 0.00 79 1007.7
20260507125417 42 251 1.0 2.0 0.00 0.00 0.00 81 1007.7
20260507124919 42 280 1.0 3.0 0.00 0.00 0.00 82 1007.6
20260507124416 41 273 0.0 4.0 0.00 0.00 0.00 82 1007.6
20260507123925 41 232 1.0 6.0 0.00 0.00 0.00 88 1007.6
20260507123418 41 241 0.0 3.0 0.00 0.00 0.00 87 1007.7
20260507122920 41 239 0.0 4.0 0.00 0.00 0.00 88 1007.6
20260507122417 41 278 3.0 3.0 0.00 0.00 0.00 91 1007.7
20260507121919 41 212 0.0 4.0 0.00 0.00 0.00 90 1007.7
20260507121423 41 333 0.0 4.0 0.00 0.00 0.00 91 1007.6
20260507120919 42 228 1.0 2.0 0.00 0.00 0.00 92 1007.5
20260507120416 42 228 0.0 6.0 0.00 0.00 0.00 93 1007.5
20260507115919 42 228 0.0 6.0 0.00 0.00 0.00 93 1007.5
20260507115419 42 357 0.0 3.0 0.00 0.00 0.00 93 1007.4
20260507114919 41 8 0.0 0.0 0.00 0.00 0.00 93 1007.3
20260507114419 41 8 0.0 0.0 0.00 0.00 0.00 93 1007.2
20260507113920 42 8 0.0 1.0 0.00 0.00 0.00 93 1007.1
20260507113416 42 8 0.0 1.0 0.00 0.00 0.00 94 1007.1
20260507112916 42 8 0.0 1.0 0.00 0.00 0.00 94 1007.0
20260507112417 42 8 0.0 0.0 0.00 0.00 0.00 94 1007.0
20260507111916 42 8 0.0 1.0 0.00 0.00 0.00 94 1007.0
20260507111419 41 9 0.0 0.0 0.00 0.00 0.00 94 1007.2
20260507110916 41 9 0.0 0.0 0.00 0.00 0.00 94 1007.3
20260507110422 41 9 0.0 1.0 0.00 0.00 0.00 94 1007.3
20260507105922 41 9 0.0 0.0 0.00 0.00 0.00 94 1007.4
20260507105416 41 9 0.0 1.0 0.00 0.00 0.00 94 1007.2
20260507104916 41 9 0.0 1.0 0.00 0.00 0.00 94 1007.1
20260507104416 41 9 0.0 0.0 0.00 0.00 0.00 94 1006.9
20260507103919 41 9 0.0 0.0 0.00 0.00 0.00 94 1006.9
20260507103416 41 9 0.0 0.0 0.00 0.00 0.00 94 1006.8
20260507102917 41 9 0.0 0.0 0.00 0.00 0.00 94 1006.8
20260507102415 41 9 0.0 0.0 0.00 0.00 0.00 94 1006.8
20260507101919 40 9 0.0 0.0 0.00 0.00 0.00 94 1006.8
20260507101419 40 9 0.0 0.0 0.00 0.00 0.00 94 1006.7
20260507100915 40 9 0.0 0.0 0.00 0.00 0.00 94 1006.7
20260507100419 40 9 0.0 0.0 0.00 0.00 0.00 93 1006.7
20260507095916 40 9 0.0 1.0 0.00 0.00 0.00 93 1006.7
20260507095415 40 9 0.0 0.0 0.00 0.00 0.00 93 1006.8
20260507094919 40 9 0.0 0.0 0.00 0.00 0.00 93 1006.8
20260507094416 40 9 0.0 0.0 0.00 0.00 0.00 93 1006.8
20260507093918 40 9 0.0 0.0 0.00 0.00 0.00 93 1006.8
20260507093416 40 9 0.0 0.0 0.00 0.00 0.00 93 1006.7
20260507092922 40 9 0.0 0.0 0.00 0.00 0.00 93 1006.5
20260507092415 40 9 0.0 0.0 0.00 0.00 0.00 93 1006.6
20260507091915 40 9 0.0 0.0 0.00 0.00 0.00 93 1006.7
20260507091418 40 9 0.0 0.0 0.00 0.00 0.00 93 1006.8
20260507090918 40 9 0.0 0.0 0.00 0.00 0.00 93 1006.7
20260507090418 40 9 0.0 0.0 0.00 0.00 0.00 94 1006.7
20260507085918 40 9 0.0 0.0 0.00 0.00 0.00 93 1006.7
20260507085418 40 9 0.0 0.0 0.00 0.00 0.00 93 1006.8
20260507084921 40 9 0.0 0.0 0.00 0.00 0.00 93 1006.8
20260507084415 40 9 0.0 0.0 0.00 0.00 0.00 93 1006.9
20260507083921 39 9 0.0 0.0 0.00 0.00 0.00 93 1006.9
20260507083415 39 9 0.0 0.0 0.00 0.00 0.00 93 1007.0
20260507082915 39 9 0.0 0.0 0.00 0.00 0.00 93 1007.1
20260507082418 39 9 0.0 0.0 0.00 0.00 0.00 93 1007.2
20260507081918 39 9 0.0 0.0 0.00 0.00 0.00 93 1007.2
20260507081415 39 9 0.0 0.0 0.00 0.00 0.00 93 1007.3
20260507080918 39 9 0.0 0.0 0.00 0.00 0.00 93 1007.2
20260507080419 39 9 0.0 0.0 0.00 0.00 0.00 93 1007.4
20260507075915 39 9 0.0 0.0 0.00 0.00 0.00 93 1007.3
20260507075415 39 9 0.0 0.0 0.00 0.00 0.00 93 1007.3
20260507074915 39 9 0.0 0.0 0.00 0.00 0.00 93 1007.4
20260507074421 39 9 0.0 0.0 0.00 0.00 0.00 93 1007.4
20260507073917 39 9 0.0 0.0 0.00 0.00 0.00 93 1007.5
20260507073415 39 9 0.0 0.0 0.00 0.00 0.00 93 1007.6
20260507072918 39 9 0.0 0.0 0.00 0.00 0.00 93 1007.5
20260507072421 39 9 0.0 0.0 0.00 0.00 0.00 93 1007.5
20260507071918 39 9 0.0 0.0 0.00 0.00 0.00 93 1007.4
20260507071415 39 9 0.0 0.0 0.00 0.00 0.00 93 1007.3
20260507070915 39 9 0.0 0.0 0.00 0.00 0.00 93 1007.3
20260507070415 39 9 0.0 0.0 0.00 0.00 0.00 93 1007.2
20260507065918 39 9 0.0 0.0 0.00 0.00 0.00 93 1007.1